Regional Weather Roundup
Issued by NWS

Home | Current Version | Previous Version | Graphics & Text | Print | Product List | Glossary On
Versions: 1 2 3 4 5 6 7 8 9 10 11 12 13 14 15 16 17 18 19 20 21 22 23 24 25 26 27 28 29 30 31 32 33 34 35 36 37 38 39 40 41 42 43 44 45 46 47 48 49 50
000
ASUS43 KOAX 311502
RWRNE

WEATHER ROUNDUP FOR NEBRASKA
NATIONAL WEATHER SERVICE OMAHA NE
1000 AM CDT THU JUL 31 2014

NOTES: SATELLITE DATA IS BEING USED TO AUGMENT CLOUD COVER ABOVE
       12000 FEET.
       "FAIR" INDICATES FEW OR NO CLOUDS BELOW 12,000 FEET WITH NO
       SIGNIFICANT WEATHER AND/OR OBSTRUCTIONS TO VISIBILITY.

  * THESE STATIONS DO NOT REPORT WEATHER SUCH AS RAIN...SNOW OR FOG.

NEZ001>004-019>022-054>056-311600-
NEBRASKA PANHANDLE

CITY           SKY/WX    TMP DP  RH WIND       PRES   REMARKS
SCOTTSBLUFF    SUNNY     69  57  65 W7        30.23R
ALLIANCE       SUNNY     74  51  44 NE8       30.21S
CHADRON        SUNNY     70  52  52 W3        30.19S
KIMBALL        SUNNY     69  51  53 W3        30.26S
SIDNEY         SUNNY     72  54  53 W7        30.25R
$$

NEZ057>060-069>072-079>082-311600-
SOUTHWEST NEBRASKA

CITY           SKY/WX    TMP DP  RH WIND       PRES   REMARKS
NORTH PLATTE   SUNNY     71  61  70 W7        30.14F
IMPERIAL       MOSUNNY   71  60  68 W5        30.20S
LEXINGTON      SUNNY     74  63  67 SW7       30.13S
MCCOOK         MOSUNNY   70  61  73 W6        30.17F
OGALLALA       SUNNY     68  60  75 SW7       30.18S
$$

NEZ005>010-023>029-035>040-094-311600-
NORTH CENTRAL NEBRASKA

CITY           SKY/WX    TMP DP  RH WIND       PRES   REMARKS
VALENTINE      SUNNY     75  55  49 NW12      30.11S
AINSWORTH      SUNNY     71  55  56 NW9       30.10S
BROKEN BOW     SUNNY     73  62  68 SW9       30.10S
O`NEILL        SUNNY     72  60  64 SW3       30.07S
ORD            MOSUNNY   73  60  63 S7        30.07F
THEDFORD       SUNNY     77  55  45 NW13      30.14S
$$

NEZ041-046>049-061>064-073>077-083>087-311600-
SOUTH CENTRAL NEBRASKA

CITY           SKY/WX    TMP DP  RH WIND       PRES   REMARKS
GRAND ISLAND   MOSUNNY   77  55  46 S12       30.11S
AURORA         MOSUNNY   74  58  57 S8        30.11S
HASTINGS       MOSUNNY   75  53  46 S8        30.12F
HEBRON         MOSUNNY   74  51  45 SW7       30.13F
HOLDREGE       MOSUNNY   73  60  63 CALM      30.13F
KEARNEY *      PTSUNNY   73  61  64 S9        30.12F
YORK           PTSUNNY   73  59  60 S10       30.12S
$$

NEZ011>018-030>034-042>045-311600-
NORTHEAST NEBRASKA

CITY           SKY/WX    TMP DP  RH WIND       PRES   REMARKS
NORFOLK        SUNNY     69  60  73 E7        30.09F
ALBION         SUNNY     73  56  56 S12       30.08F
BLAIR          SUNNY     71  58  62 S5        30.11S
COLUMBUS *     SUNNY     70  55  60 S10       30.09F
FREMONT        MOSUNNY   76  57  52 CALM      30.11S
TEKAMAH        MOSUNNY   73  59  61 S6        30.10F
WAYNE          CLOUDY    66  60  81 CALM      30.10F
$$

NEZ050>053-065>068-078-088>093-311600-
SOUTHEAST NEBRASKA

CITY           SKY/WX    TMP DP  RH WIND       PRES   REMARKS
LINCOLN        SUNNY     75  56  51 S7        30.12S
OMAHA EPPLEY   MOSUNNY   73  56  54 S5        30.11S
BEATRICE       SUNNY     73  59  61 SW5       30.12F
FALLS CITY     SUNNY     73  59  61 CALM      30.12S
NEBRASKA CITY  SUNNY     73  56  55 SW3       30.12S
PLATTSMOUTH    SUNNY     74  55  52 SW3       30.12F
$$

NEZ044-045-051>053-067-311600-
OMAHA AREA

CITY           SKY/WX    TMP DP  RH WIND       PRES   REMARKS
OMAHA EPPLEY   MOSUNNY   73  56  54 S5        30.11S
BLAIR          SUNNY     71  58  62 S5        30.11S
FREMONT        MOSUNNY   76  57  52 CALM      30.11S
MILLARD        SUNNY     75  58  57 CALM      30.11S
OFFUTT AFB     SUNNY     73  62  68 CALM      30.11S
PLATTSMOUTH    SUNNY     74  55  52 SW3       30.12F
WAHOO          FAIR      73  59  61 SE3       30.10F
$$


USA.gov is the U.S. government's official web portal to all federal, state and local government web resources and services.